Voltar ao catálogo

COSMOS 2251 DEB

AtivoLEO
NORAD 37546·DEBRIS·🇷🇺 Russia

Lançado Jun 16, 1993 de Plesetsk Cosmodrome

Loading…

Próximas Passagens (próximas 24 horas)

TLE

AtualizadoSource: Space-Track

Época: Sep 13, 2026, 09:31 UTC

1 37546U 93036BPB 26256.39698275  .00009937  00000-0  10450-2 0  9996
2 37546  74.0163 271.7040 0008428 265.8440  94.1778 14.89492741699661

Acompanhe COSMOS 2251 DEB em tempo real com AllMySat

Download on the App Store